This is the latest recevied weather packets stored in our database for station/object N9DMT-13. If no packets are shown the sender has not sent any weather packets the latest 10 day(s).
| Time | Temp. | Humidity | Pressure | Rain* | Wind** | Luminosity | Snow |
|---|---|---|---|---|---|---|---|
| 1777774967 | 6.67° C | 76% | 981.5 hPa | 0 mm | - | - | - |
| 1777774666 | 6.67° C | 76% | 981.4 hPa | 0 mm | - | - | - |
| 1777774366 | 6.67° C | 76% | 981.6 hPa | 0 mm | - | - | - |
| 1777774065 | 7.22° C | 74% | 981.5 hPa | 0 mm | - | - | - |
| 1777773764 | 7.22° C | 73% | 981.3 hPa | 0 mm | - | - | - |
| 1777773463 | 7.22° C | 72% | 981.3 hPa | 0 mm | - | - | - |
| 1777773163 | 7.78° C | 73% | 981.3 hPa | 0 mm | - | - | - |
| 1777772862 | 7.78° C | 70% | 981.4 hPa | 0 mm | - | - | - |
| 1777772561 | 8.33° C | 69% | 981.3 hPa | 0 mm | - | - | - |
| 1777772261 | 8.33° C | 65% | 981.3 hPa | 0 mm | - | - | - |
| 1777771960 | 8.89° C | 64% | 981.3 hPa | 0 mm | - | - | - |
| 1777771659 | 9.44° C | 65% | 981.3 hPa | 0 mm | - | - | - |
| 1777771359 | 9.44° C | 61% | 981.2 hPa | 0 mm | - | - | - |
| 1777771058 | 10° C | 58% | 981.2 hPa | 0 mm | - | - | - |
| 1777770757 | 10° C | 55% | 981.2 hPa | 0 mm | - | - | - |
| 1777770456 | 10.56° C | 56% | 981.3 hPa | 0 mm | - | - | - |
| 1777770156 | 11.11° C | 52% | 981.1 hPa | 0 mm | - | - | - |
| 1777769855 | 11.67° C | 51% | 981.4 hPa | 0 mm | - | - | - |
| 1777769554 | 12.22° C | 46% | 981.2 hPa | 0 mm | - | - | - |
| 1777769253 | 12.78° C | 47% | 981.3 hPa | 0 mm | - | - | - |
| 1777768952 | 13.33° C | 40% | 981.2 hPa | 0 mm | - | - | - |
| 1777768651 | 13.33° C | 39% | 981.5 hPa | 0 mm | - | - | - |
| 1777768350 | 13.33° C | 40% | 981.3 hPa | 0 mm | - | - | - |
| 1777768049 | 13.89° C | 36% | 981.4 hPa | 0 mm | - | - | - |
| 1777767748 | 13.89° C | 36% | 981.4 hPa | 0 mm | - | - | - |
* Rain latest hour (hover to see other rain measurements)
** Current wind speed in m/s (hover to see current wind gust speed)